Torna al catalogo

STARLINK-32725

AttivoComunicazioniVLEO
NORAD 62505·PAYLOAD·🇺🇸 United States

Lanciato Jan 6, 2025 da Cape Canaveral Space Force Station

Loading…

Prossimi Passaggi (prossime 24 ore)

TLE

AggiornatoSource: CelesTrak SupGP

Epoca: Sep 14, 2026, 20:48 UTC

1 62505C 25003U   26257.86715278 -.00022506  00000+0 -81516-3 0  2571
2 62505  43.0023 300.1701 0001487 266.1697 269.7378 15.27589957    12

Traccia STARLINK-32725 in tempo reale con AllMySat

Download on the App Store